Location: Bramevaque
(42.9773°N, 0.5757°E)
Time: 22:39:41
(UTC+00:00)

Cosmos 2082 Rocket - Pass Details

Date: 15 May 2026
Orbit: 832 x 852 km, 71.0° (Epoch: 10 June)

Event Time Altitude Azimuth Distance (km) Brightness Sun altitude
Rises 20:35:53 0° 221° (SW) 3,407 5.3 -13.1°
Reaches altitude 10° 20:38:25 10° 227° (SW) 2,475 4.7 -13.4°
Maximum altitude 20:43:53 46° 300° (WNW) 1,129 3.4 -14.2°
Drops below altitude 10° 20:49:22 10° 14° (NNE) 2,485 5.1 -14.9°
Sets 20:51:56 0° 21° (NNE) 3,422 5.7 -15.2°
